• In Hungary
  • List of Countries
  • For 7 days
  • Water Temperature
  • Satellite Maps
  • Weather Map
  • News
  • Weather Widgets
  • user-avatar
    Login

    Hourly Weather Severomuysk

    Today, 19 June, Tuesday

    Time Temperature Precipitation Wind Pressure Humidity
    00:00 +13°C° 0 mm 1 mps 695 mmHg 70%
    01:00 +13°C° 0 mm 1 mps 695 mmHg 71%
    02:00 +12°C° 0 mm 1 mps 695 mmHg 72%
    03:00 +13°C° 0 mm 1 mps 695 mmHg 72%
    04:00 +13°C° 0 mm 1 mps 695 mmHg 71%
    05:00 +13°C° 0 mm 1 mps 695 mmHg 71%
    06:00 +15°C° 0 mm 2 mps 695 mmHg 64%
    07:00 +17°C° 0 mm 2 mps 696 mmHg 56%
    08:00 +18°C° 0 mm 3 mps 696 mmHg 56%
    09:00 +19°C° 0 mm 3 mps 696 mmHg 53%
    10:00 +20°C° 0 mm 4 mps 696 mmHg 50%
    11:00 +21°C° 0 mm 4 mps 696 mmHg 46%
    12:00 +21°C° 0.1 mm 4 mps 696 mmHg 45%
    13:00 +22°C° 0.1 mm 4 mps 696 mmHg 44%
    14:00 +22°C° 0.1 mm 4 mps 696 mmHg 43%
    15:00 +22°C° 0.1 mm 4 mps 695 mmHg 42%
    16:00 +24°C° 0.1 mm 3 mps 695 mmHg 41%
    17:00 +24°C° 0.1 mm 3 mps 695 mmHg 40%
    18:00 +23°C° 0 mm 2 mps 695 mmHg 45%
    19:00 +21°C° 0 mm 2 mps 695 mmHg 50%
    20:00 +21°C° 0 mm 1 mps 695 mmHg 55%
    21:00 +19°C° 0 mm 1 mps 695 mmHg 60%
    22:00 +16°C° 0 mm 1 mps 694 mmHg 65%
    23:00 +13°C° 0 mm 0 mps 694 mmHg 71%

    Tomorrow, 20 June, Wednesday

    Time Temperature Precipitation Wind Pressure Humidity
    00:00 +13°C° 0 mm 0 mps 694 mmHg 72%
    01:00 +12°C° 0 mm 0 mps 694 mmHg 74%
    02:00 +12°C° 0 mm 0 mps 694 mmHg 75%
    03:00 +12°C° 0 mm 0 mps 694 mmHg 73%
    04:00 +13°C° 0 mm 0 mps 694 mmHg 71%
    05:00 +13°C° 0 mm 0 mps 694 mmHg 69%
    06:00 +15°C° 0 mm 0 mps 694 mmHg 61%
    07:00 +18°C° 0 mm 0 mps 694 mmHg 53%
    08:00 +22°C° 0 mm 1 mps 694 mmHg 45%
    09:00 +23°C° 0 mm 1 mps 694 mmHg 42%
    10:00 +24°C° 0 mm 1 mps 694 mmHg 38%
    11:00 +25°C° 0 mm 1 mps 694 mmHg 35%
    12:00 +25°C° 0 mm 1 mps 694 mmHg 33%
    13:00 +26°C° 0 mm 1 mps 693 mmHg 31%
    14:00 +26°C° 0 mm 1 mps 693 mmHg 30%
    15:00 +27°C° 0 mm 1 mps 693 mmHg 29%
    16:00 +27°C° 0 mm 2 mps 692 mmHg 29%
    17:00 +27°C° 0 mm 2 mps 692 mmHg 29%
    18:00 +26°C° 0 mm 2 mps 692 mmHg 34%
    19:00 +25°C° 0 mm 1 mps 692 mmHg 40%
    20:00 +24°C° 0 mm 1 mps 692 mmHg 45%
    21:00 +22°C° 0 mm 1 mps 691 mmHg 49%
    22:00 +20°C° 0 mm 1 mps 691 mmHg 53%
    23:00 +16°C° 0 mm 0 mps 691 mmHg 57%

    Day after tomorrow, 21 June, Thursday

    Time Temperature Precipitation Wind Pressure Humidity
    00:00 +15°C° 0 mm 0 mps 691 mmHg 59%
    01:00 +15°C° 0 mm 0 mps 691 mmHg 61%
    02:00 +14°C° 0 mm 0 mps 690 mmHg 62%
    03:00 +15°C° 0 mm 0 mps 690 mmHg 62%
    04:00 +15°C° 0 mm 0 mps 691 mmHg 61%
    05:00 +16°C° 0 mm 0 mps 691 mmHg 61%
    06:00 +20°C° 0 mm 1 mps 691 mmHg 53%
    07:00 +22°C° 0 mm 1 mps 691 mmHg 45%
    08:00 +24°C° 0 mm 1 mps 692 mmHg 37%
    09:00 +25°C° 0 mm 1 mps 692 mmHg 35%
    10:00 +26°C° 0 mm 2 mps 692 mmHg 33%
    11:00 +27°C° 0 mm 2 mps 691 mmHg 31%
    12:00 +27°C° 0 mm 2 mps 691 mmHg 31%
    13:00 +28°C° 0 mm 3 mps 691 mmHg 30%
    14:00 +28°C° 0 mm 3 mps 691 mmHg 30%
    15:00 +28°C° 0 mm 3 mps 691 mmHg 31%
    16:00 +28°C° 0 mm 3 mps 691 mmHg 31%
    17:00 +28°C° 0 mm 4 mps 690 mmHg 32%
    18:00 +27°C° 0 mm 3 mps 690 mmHg 37%
    19:00 +26°C° 0 mm 3 mps 690 mmHg 42%
    20:00 +25°C° 0 mm 2 mps 690 mmHg 47%
    21:00 +23°C° 0 mm 2 mps 690 mmHg 52%
    22:00 +20°C° 0 mm 1 mps 690 mmHg 58%
    23:00 +18°C° 0 mm 1 mps 690 mmHg 64%

    22 June, Friday

    Time Temperature Precipitation Wind Pressure Humidity
    00:00 +18°C° 0 mm 1 mps 690 mmHg 64%
    01:00 +18°C° 0 mm 1 mps 690 mmHg 65%
    02:00 +18°C° 0 mm 1 mps 690 mmHg 65%
    03:00 +18°C° 0 mm 1 mps 690 mmHg 65%
    04:00 +18°C° 0 mm 1 mps 690 mmHg 66%
    05:00 +19°C° 0 mm 1 mps 690 mmHg 66%
    06:00 +20°C° 0 mm 1 mps 691 mmHg 61%
    07:00 +21°C° 0 mm 2 mps 691 mmHg 55%
    08:00 +23°C° 0 mm 2 mps 691 mmHg 50%
    09:00 +24°C° 0.1 mm 3 mps 691 mmHg 48%
    10:00 +25°C° 0.1 mm 3 mps 691 mmHg 47%
    11:00 +26°C° 0.1 mm 4 mps 691 mmHg 45%
    12:00 +25°C° 0.5 mm 4 mps 691 mmHg 47%
    13:00 +25°C° 0.5 mm 4 mps 691 mmHg 50%
    14:00 +23°C° 0.5 mm 4 mps 691 mmHg 52%
    15:00 +22°C° 0.6 mm 4 mps 691 mmHg 55%
    16:00 +22°C° 0.6 mm 3 mps 691 mmHg 58%
    17:00 +21°C° 0.6 mm 2 mps 691 mmHg 61%
    18:00 +20°C° 0.2 mm 2 mps 691 mmHg 63%
    19:00 +20°C° 0.2 mm 2 mps 692 mmHg 65%
    20:00 +20°C° 0.2 mm 2 mps 692 mmHg 66%
    21:00 +20°C° 0.3 mm 1 mps 692 mmHg 71%
    22:00 +19°C° 0.3 mm 1 mps 691 mmHg 76%
    23:00 +16°C° 0.3 mm 1 mps 691 mmHg 80%

    23 June, Saturday

    Time Temperature Precipitation Wind Pressure Humidity
    00:00 +16°C° 0.1 mm 1 mps 691 mmHg 82%
    01:00 +16°C° 0.1 mm 1 mps 691 mmHg 83%
    02:00 +15°C° 0.1 mm 1 mps 691 mmHg 85%
    03:00 +15°C° 0.1 mm 1 mps 691 mmHg 85%
    04:00 +15°C° 0.1 mm 1 mps 691 mmHg 85%
    05:00 +15°C° 0.1 mm 1 mps 691 mmHg 85%
    06:00 +18°C° 0.4 mm 1 mps 691 mmHg 77%
    07:00 +18°C° 0.4 mm 2 mps 691 mmHg 69%
    08:00 +19°C° 0.4 mm 2 mps 692 mmHg 61%
    09:00 +20°C° 0.5 mm 2 mps 692 mmHg 58%
    10:00 +21°C° 0.5 mm 2 mps 692 mmHg 54%
    11:00 +22°C° 0.5 mm 3 mps 691 mmHg 50%
    12:00 +22°C° 0.5 mm 3 mps 691 mmHg 48%
    13:00 +22°C° 0.5 mm 3 mps 691 mmHg 46%
    14:00 +24°C° 0.5 mm 3 mps 691 mmHg 44%
    15:00 +24°C° 0.5 mm 3 mps 691 mmHg 45%
    16:00 +24°C° 0.5 mm 3 mps 691 mmHg 45%
    17:00 +24°C° 0.5 mm 3 mps 691 mmHg 46%
    18:00 +22°C° 0.6 mm 3 mps 691 mmHg 51%
    19:00 +21°C° 0.6 mm 2 mps 691 mmHg 56%
    20:00 +20°C° 0.6 mm 2 mps 691 mmHg 61%
    21:00 +19°C° 0.3 mm 2 mps 691 mmHg 66%
    22:00 +17°C° 0.3 mm 2 mps 691 mmHg 72%
    23:00 +16°C° 0.3 mm 1 mps 691 mmHg 77%

    24 June, Sunday

    Time Temperature Precipitation Wind Pressure Humidity
    00:00 +16°C° 0.2 mm 1 mps 691 mmHg 79%
    01:00 +15°C° 0.2 mm 1 mps 691 mmHg 82%
    02:00 +15°C° 0.2 mm 1 mps 691 mmHg 84%
    03:00 +15°C° 0.4 mm 1 mps 692 mmHg 84%
    04:00 +15°C° 0.4 mm 1 mps 692 mmHg 85%
    05:00 +15°C° 0.4 mm 1 mps 692 mmHg 86%
    06:00 +16°C° 0.5 mm 1 mps 692 mmHg 82%
    07:00 +18°C° 0.5 mm 1 mps 692 mmHg 78%
    08:00 +18°C° 0.5 mm 1 mps 693 mmHg 75%
    09:00 +19°C° 0.6 mm 1 mps 693 mmHg 71%
    10:00 +20°C° 0.6 mm 1 mps 693 mmHg 68%
    11:00 +21°C° 0.6 mm 1 mps 693 mmHg 64%
    12:00 +21°C° 0.5 mm 1 mps 693 mmHg 61%
    13:00 +22°C° 0.5 mm 1 mps 693 mmHg 58%
    14:00 +23°C° 0.5 mm 1 mps 692 mmHg 54%
    15:00 +23°C° 0.6 mm 1 mps 692 mmHg 54%
    16:00 +23°C° 0.6 mm 1 mps 693 mmHg 53%
    17:00 +23°C° 0.6 mm 1 mps 693 mmHg 53%
    18:00 +23°C° 0.7 mm 1 mps 693 mmHg 57%
    19:00 +22°C° 0.7 mm 1 mps 693 mmHg 62%
    20:00 +21°C° 0.7 mm 1 mps 693 mmHg 66%
    21:00 +20°C° 0.7 mm 1 mps 693 mmHg 70%
    22:00 +19°C° 0.7 mm 1 mps 693 mmHg 74%
    23:00 +18°C° 0.7 mm 1 mps 693 mmHg 78%
    Show more